Location: Pacheco
(37.9835°N, 122.0752°W)
Time: 09:56:07
(UTC+00:00)

Cosmos 2278 Rocket - Visible Passes

Search period start: 24 July 2024 00:00
Search period end: 03 August 2024 00:00
Orbit: 841 x 844 km, 71.0° (Epoch: 24 July)

Date Brightness Start Highest point End Pass type
(mag) Time Alt. Az. Time Alt. Az. Time Alt. Az.
24 Jul 2.8 03:57:37 10° SSE 04:02:41 35° ESE 04:07:46 10° NE visible
24 Jul 4.0 05:41:47 10° WSW 05:46:44 31° WNW 05:51:42 10° N visible
25 Jul 2.9 03:42:57 10° SSE 03:47:57 33° ESE 03:52:58 10° NE visible
25 Jul 4.0 05:26:56 10° WSW 05:31:57 32° WNW 05:36:59 10° N visible
26 Jul 3.9 05:12:06 10° SW 05:17:11 33° WNW 05:22:17 10° N visible
26 Jul 5.6 12:25:29 10° NNE 12:27:56 13° NE 12:30:24 10° ENE visible
27 Jul 3.9 04:57:17 10° SW 05:02:25 35° WNW 05:07:35 10° N visible
27 Jul 5.7 12:10:56 10° NNE 12:13:09 12° NE 12:15:21 10° ENE visible
28 Jul 3.8 04:42:28 10° SW 04:47:39 37° WNW 04:52:52 10° N visible
28 Jul 5.7 11:56:26 10° NNE 11:58:21 12° NE 12:00:15 10° ENE visible
29 Jul 3.8 04:27:38 10° SW 04:32:52 38° WNW 04:38:09 10° N visible
29 Jul 5.8 11:41:59 10° NNE 11:43:33 11° NE 11:45:06 10° ENE visible
30 Jul 3.7 04:12:49 10° SW 04:18:07 40° WNW 04:23:25 10° N visible
30 Jul 5.8 11:27:39 10° NE 11:28:44 10° NE 11:29:50 10° ENE visible
31 Jul 3.7 03:58:01 10° SW 04:03:21 42° WNW 04:08:43 10° N visible
01 Aug 3.6 03:43:13 10° SW 03:48:35 44° WNW 03:54:00 10° N visible
01 Aug 2.8 12:38:43 10° NNW 12:44:20 64° ENE 12:49:56 10° SSE visible
02 Aug 2.9 12:23:59 10° NNW 12:29:35 61° ENE 12:35:10 10° SE visible
